Tracking 20623 objects as of 2-Apr-2020
HD Live streaming from Space Station
objects crossing your sky now

MOLNIYA 1-S

Track MOLNIYA 1-S now!
MOLNIYA 1-S is classified as:


NORAD ID: 7392
Int'l Code: 1974-060A
Perigee: 35,779.6 km
Apogee: 35,848.1 km
Inclination: 7.1 °
Period: 1,437.1 minutes
Semi major axis: 42184 km
RCS: 1.5848 m2 (large)
Launch date: July 29, 1974
Source: Commonwealth of Independent States (former USSR) (CIS)
Launch site: TYURATAM MISSILE AND SPACE COMPLEX (TTMTR)
aabbcc
Your satellite tracking list
Your tracking list is empty




NASA's NSSDC Master Catalog

Two Line Element Set (TLE):
1  7392U 74060A   20092.90009337 -.00000140  00000-0  00000+0 0  9997
2  7392   7.0603 294.5361 0008125 176.1989 124.8582  1.00200044111426
Source of the keplerian elements: AFSPC